EJU39LN LFBD-LPMA

Flight info

Callsign EJU39LN
Flight time 2h 51m
Altitude 35000
Route VAVIX DCT BTZ DCT URUNA DCT SSN DCT VRA DCT NEA DCT ARDID DCT FTM/N0455F370 DCT BUSEN DCT GALPA DCT RAKUN
Aircraft A21N/M-SDE3FGHIRWY/LB1

Departure

Time 2026-05-04 14:36
Airport Bordeaux–Mérignac Airport (LFBD)

Arrival

Time 2026-05-04 17:28
Airport Cristiano Ronaldo International Airport (LPMA)
Time Latitude Longitude Altitude Speed Heading
2026-05-04 14:16 44.82927 -0.70561 156 ft 0 kts 321°
2026-05-04 14:28 44.82924 -0.70558 156 ft 2 kts 323°
2026-05-04 14:28 44.82910 -0.70550 156 ft 2 kts
2026-05-04 14:28 44.82895 -0.70551 156 ft 2 kts 350°
2026-05-04 14:28 44.82885 -0.70548 156 ft 1 kts 349°
2026-05-04 14:29 44.82864 -0.70530 156 ft 0 kts 295°
2026-05-04 14:29 44.82862 -0.70522 156 ft 0 kts 291°
2026-05-04 14:30 44.82864 -0.70534 156 ft 2 kts 281°
2026-05-04 14:31 44.82869 -0.70577 156 ft 6 kts 280°
2026-05-04 14:31 44.82901 -0.70742 158 ft 10 kts 287°
2026-05-04 14:32 44.82942 -0.70915 162 ft 6 kts 326°
2026-05-04 14:32 44.82988 -0.70905 161 ft 7 kts 39°
2026-05-04 14:32 44.83036 -0.70840 160 ft 10 kts 45°
2026-05-04 14:32 44.83096 -0.70753 158 ft 13 kts 45°
2026-05-04 14:33 44.83171 -0.70646 156 ft 16 kts 44°
2026-05-04 14:33 44.83254 -0.70529 156 ft 17 kts 45°
2026-05-04 14:33 44.83340 -0.70403 156 ft 18 kts 45°
2026-05-04 14:33 44.83432 -0.70273 157 ft 18 kts 45°
2026-05-04 14:34 44.83512 -0.70161 159 ft 17 kts 44°
2026-05-04 14:34 44.83594 -0.70046 158 ft 14 kts 46°
2026-05-04 14:34 44.83673 -0.70023 156 ft 12 kts 348°
2026-05-04 14:34 44.83757 -0.70063 156 ft 12 kts 338°
2026-05-04 14:35 44.83822 -0.70134 156 ft 12 kts 277°
2026-05-04 14:35 44.83783 -0.70225 156 ft 11 kts 227°
2026-05-04 14:35 44.83685 -0.70365 156 ft 47 kts 225°
2026-05-04 14:35 44.83282 -0.70941 159 ft 116 kts 224°
2026-05-04 14:36 44.82560 -0.71975 163 ft 173 kts 227°
2026-05-04 14:36 44.81665 -0.73251 648 ft 184 kts 227°
2026-05-04 14:36 44.80763 -0.74525 1429 ft 185 kts 229°
2026-05-04 14:36 44.79870 -0.75791 2200 ft 183 kts 230°
2026-05-04 14:37 44.78957 -0.77106 2712 ft 194 kts 230°
2026-05-04 14:37 44.77987 -0.78512 3151 ft 210 kts 229°
2026-05-04 14:37 44.76730 -0.79728 3522 ft 235 kts 199°
2026-05-04 14:37 44.75003 -0.79775 3903 ft 260 kts 172°
2026-05-04 14:38 44.73150 -0.79352 4490 ft 274 kts 173°
2026-05-04 14:38 44.71341 -0.78978 5308 ft 276 kts 173°
2026-05-04 14:38 44.69494 -0.78629 6199 ft 275 kts 174°
2026-05-04 14:38 44.67616 -0.78293 7063 ft 275 kts 174°
2026-05-04 14:39 44.65711 -0.77955 7884 ft 277 kts 174°
2026-05-04 14:39 44.63782 -0.77534 8683 ft 279 kts 172°
2026-05-04 14:39 44.61876 -0.77104 9470 ft 281 kts 172°
2026-05-04 14:40 44.57962 -0.76219 10726 ft 295 kts 172°
2026-05-04 14:40 44.55846 -0.75742 11066 ft 312 kts 172°
2026-05-04 14:40 44.53653 -0.75247 11462 ft 326 kts 172°
2026-05-04 14:40 44.51382 -0.74735 12017 ft 333 kts 172°
2026-05-04 14:41 44.49101 -0.74220 12724 ft 336 kts 172°
2026-05-04 14:41 44.46767 -0.73693 13454 ft 338 kts 172°
2026-05-04 14:41 44.42132 -0.72650 14805 ft 342 kts 172°
2026-05-04 14:42 44.37427 -0.71590 16150 ft 345 kts 171°
2026-05-04 14:42 44.35058 -0.71058 16808 ft 347 kts 172°
2026-05-04 14:42 44.32661 -0.70521 17428 ft 349 kts 171°
2026-05-04 14:43 44.30230 -0.70028 18048 ft 350 kts 176°
2026-05-04 14:43 44.27809 -0.70341 18610 ft 353 kts 194°
2026-05-04 14:43 44.25551 -0.71706 19200 ft 357 kts 210°
2026-05-04 14:43 44.23529 -0.73714 19795 ft 360 kts 213°
2026-05-04 14:44 44.21490 -0.75808 20338 ft 363 kts 213°
2026-05-04 14:44 44.19447 -0.77907 20845 ft 366 kts 213°
2026-05-04 14:44 44.17376 -0.80027 21351 ft 369 kts 213°
2026-05-04 14:44 44.15314 -0.82135 21850 ft 372 kts 213°
2026-05-04 14:45 44.13231 -0.84259 22341 ft 374 kts 213°
2026-05-04 14:45 44.11125 -0.86403 22829 ft 377 kts 213°
2026-05-04 14:45 44.09007 -0.88557 23302 ft 379 kts 213°
2026-05-04 14:45 44.06887 -0.90708 23720 ft 382 kts 213°
2026-05-04 14:46 44.04687 -0.92939 24161 ft 385 kts 213°
2026-05-04 14:46 44.02525 -0.95131 24622 ft 387 kts 213°
2026-05-04 14:46 44.00339 -0.97344 25076 ft 388 kts 213°
2026-05-04 14:46 43.98168 -0.99540 25487 ft 390 kts 213°
2026-05-04 14:47 43.95969 -1.01762 25893 ft 391 kts 213°
2026-05-04 14:47 43.93767 -1.03984 26285 ft 393 kts 213°
2026-05-04 14:47 43.91537 -1.06232 26668 ft 394 kts 213°
2026-05-04 14:47 43.89312 -1.08475 27030 ft 396 kts 213°
2026-05-04 14:48 43.87086 -1.10716 27352 ft 398 kts 213°
2026-05-04 14:48 43.84824 -1.12988 27681 ft 400 kts 214°
2026-05-04 14:48 43.82555 -1.15266 28024 ft 402 kts 214°
2026-05-04 14:48 43.80312 -1.17520 28338 ft 403 kts 214°
2026-05-04 14:49 43.78014 -1.19825 28649 ft 405 kts 214°
2026-05-04 14:49 43.75747 -1.22096 28966 ft 406 kts 214°
2026-05-04 14:49 43.73452 -1.24390 29271 ft 407 kts 214°
2026-05-04 14:49 43.71155 -1.26686 29547 ft 409 kts 214°
2026-05-04 14:50 43.68845 -1.28995 29819 ft 410 kts 214°
2026-05-04 14:50 43.66528 -1.31307 30149 ft 410 kts 214°
2026-05-04 14:50 43.64217 -1.33611 30545 ft 408 kts 214°
2026-05-04 14:50 43.61912 -1.35908 30910 ft 406 kts 215°
2026-05-04 14:51 43.59633 -1.38179 31236 ft 404 kts 215°
2026-05-04 14:51 43.57369 -1.40428 31501 ft 403 kts 215°
2026-05-04 14:51 43.55055 -1.42726 31710 ft 404 kts 215°
2026-05-04 14:51 43.52824 -1.44999 31934 ft 405 kts 217°
2026-05-04 14:52 43.50611 -1.47498 32169 ft 405 kts 220°
2026-05-04 14:52 43.48523 -1.50131 32393 ft 406 kts 223°
2026-05-04 14:52 43.46548 -1.52904 32599 ft 406 kts 226°
2026-05-04 14:52 43.44690 -1.55813 32775 ft 406 kts 229°
2026-05-04 14:53 43.42954 -1.58848 32945 ft 407 kts 232°
2026-05-04 14:53 43.41342 -1.61990 33098 ft 407 kts 234°
2026-05-04 14:53 43.39833 -1.65104 33241 ft 408 kts 234°
2026-05-04 14:53 43.38311 -1.68246 33382 ft 408 kts 234°
2026-05-04 14:54 43.36855 -1.71251 33503 ft 409 kts 234°
2026-05-04 14:54 43.35211 -1.74641 33632 ft 410 kts 234°
2026-05-04 14:54 43.33621 -1.77916 33752 ft 411 kts 235°
2026-05-04 14:54 43.32057 -1.81133 33881 ft 411 kts 234°
2026-05-04 14:55 43.30390 -1.84372 34024 ft 411 kts 232°
2026-05-04 14:55 43.28649 -1.87532 34155 ft 412 kts 232°
2026-05-04 14:55 43.26916 -1.90678 34277 ft 414 kts 232°
2026-05-04 14:55 43.25198 -1.93794 34403 ft 414 kts 232°
2026-05-04 14:56 43.23441 -1.96978 34542 ft 415 kts 232°
2026-05-04 14:56 43.21701 -2.00125 34669 ft 416 kts 232°
2026-05-04 14:56 43.19943 -2.03301 34780 ft 417 kts 232°
2026-05-04 14:56 43.18214 -2.06425 34901 ft 417 kts 232°
2026-05-04 14:57 43.14696 -2.12764 34975 ft 419 kts 232°
2026-05-04 14:57 43.11148 -2.19147 34981 ft 419 kts 232°
2026-05-04 14:58 43.07630 -2.25462 34979 ft 418 kts 232°
2026-05-04 14:58 43.04106 -2.31773 34980 ft 418 kts 232°
2026-05-04 14:59 43.00578 -2.38077 34975 ft 417 kts 232°
2026-05-04 15:00 42.95291 -2.47502 34973 ft 418 kts 232°
2026-05-04 15:00 42.91753 -2.53790 34981 ft 417 kts 232°
2026-05-04 15:01 42.86468 -2.63160 34992 ft 417 kts 233°
2026-05-04 15:01 42.82933 -2.69411 34997 ft 417 kts 232°
2026-05-04 15:02 42.79414 -2.75626 34996 ft 417 kts 232°
2026-05-04 15:02 42.75881 -2.81849 34997 ft 417 kts 232°
2026-05-04 15:03 42.72395 -2.87988 34995 ft 416 kts 233°
2026-05-04 15:03 42.68885 -2.94300 34995 ft 416 kts 233°
2026-05-04 15:04 42.65414 -3.00547 34989 ft 416 kts 233°
2026-05-04 15:04 42.61924 -3.06811 34986 ft 415 kts 233°
2026-05-04 15:05 42.58425 -3.13071 34984 ft 415 kts 233°
2026-05-04 15:05 42.54926 -3.19318 34983 ft 415 kts 233°
2026-05-04 15:06 42.51430 -3.25546 34981 ft 415 kts 233°
2026-05-04 15:07 42.46169 -3.34894 34976 ft 415 kts 233°
2026-05-04 15:07 42.42638 -3.41148 34973 ft 415 kts 233°
2026-05-04 15:08 42.39151 -3.47319 34972 ft 415 kts 233°
2026-05-04 15:08 42.35644 -3.53508 34969 ft 414 kts 234°
2026-05-04 15:09 42.32149 -3.59665 34968 ft 414 kts 234°
2026-05-04 15:09 42.28666 -3.65787 34971 ft 414 kts 233°
2026-05-04 15:10 42.23374 -3.75066 34969 ft 414 kts 233°
2026-05-04 15:11 42.21078 -3.79084 34970 ft 414 kts 233°
2026-05-04 15:11 42.18251 -3.84021 34967 ft 414 kts 233°
2026-05-04 15:12 42.14720 -3.90176 34961 ft 414 kts 233°
2026-05-04 15:12 42.11197 -3.96310 34961 ft 413 kts 233°
2026-05-04 15:13 42.07684 -4.02411 34955 ft 414 kts 233°
2026-05-04 15:13 42.04205 -4.08623 34949 ft 413 kts 237°
2026-05-04 15:14 42.01194 -4.15165 34950 ft 412 kts 242°
2026-05-04 15:14 41.98562 -4.22015 34953 ft 412 kts 243°
2026-05-04 15:15 41.95952 -4.28860 34954 ft 412 kts 244°
2026-05-04 15:15 41.93351 -4.35671 34950 ft 412 kts 244°
2026-05-04 15:16 41.89410 -4.45974 34946 ft 411 kts 244°
2026-05-04 15:17 41.85449 -4.56288 34950 ft 411 kts 244°
2026-05-04 15:17 41.81513 -4.66508 34956 ft 410 kts 243°
2026-05-04 15:18 41.78907 -4.73251 34956 ft 410 kts 243°
2026-05-04 15:19 41.74960 -4.83439 34962 ft 409 kts 244°
2026-05-04 15:19 41.71024 -4.93560 34964 ft 409 kts 244°
2026-05-04 15:20 41.68386 -5.00323 34956 ft 409 kts 244°
2026-05-04 15:20 41.65754 -5.07057 34959 ft 408 kts 244°
2026-05-04 15:21 41.63121 -5.13778 34960 ft 408 kts 244°
2026-05-04 15:22 41.59178 -5.23815 34958 ft 407 kts 244°
2026-05-04 15:22 41.55216 -5.33863 34955 ft 407 kts 244°
2026-05-04 15:23 41.52579 -5.40535 34956 ft 407 kts 244°
2026-05-04 15:23 41.49951 -5.47162 34959 ft 406 kts 244°
2026-05-04 15:24 41.44653 -5.60488 34962 ft 405 kts 244°
2026-05-04 15:25 41.42018 -5.67091 34962 ft 406 kts 244°
2026-05-04 15:26 41.38037 -5.77043 34964 ft 406 kts 244°
2026-05-04 15:26 41.34045 -5.86988 34970 ft 405 kts 244°
2026-05-04 15:27 41.30068 -5.96859 34968 ft 404 kts 244°
2026-05-04 15:28 41.26065 -6.06764 34971 ft 403 kts 244°
2026-05-04 15:29 41.22024 -6.16545 34972 ft 404 kts 239°
2026-05-04 15:30 41.08902 -6.36185 34978 ft 407 kts 232°
2026-05-04 15:31 41.03194 -6.44514 34995 ft 407 kts 232°
2026-05-04 15:32 40.93698 -6.58333 34994 ft 407 kts 232°
2026-05-04 15:34 40.84143 -6.72173 34997 ft 407 kts 231°
2026-05-04 15:34 40.78445 -6.80399 35000 ft 406 kts 231°
2026-05-04 15:35 40.72710 -6.88656 34998 ft 406 kts 232°
2026-05-04 15:36 40.67011 -6.96837 35002 ft 405 kts 232°
2026-05-04 15:36 40.63202 -7.02292 35005 ft 405 kts 232°
2026-05-04 15:37 40.59403 -7.07728 34998 ft 405 kts 232°
2026-05-04 15:37 40.55573 -7.13191 35008 ft 405 kts 232°
2026-05-04 15:38 40.51716 -7.18687 34999 ft 404 kts 232°
2026-05-04 15:38 40.47903 -7.24108 35005 ft 405 kts 232°
2026-05-04 15:39 40.44065 -7.29555 35004 ft 405 kts 232°
2026-05-04 15:40 40.38314 -7.37701 35025 ft 404 kts 232°
2026-05-04 15:40 40.34494 -7.43099 35009 ft 404 kts 232°
2026-05-04 15:41 40.30677 -7.48482 35022 ft 404 kts 232°
2026-05-04 15:41 40.26830 -7.53899 35020 ft 404 kts 232°
2026-05-04 15:42 40.23019 -7.59255 35030 ft 404 kts 232°
2026-05-04 15:42 40.19190 -7.64627 35026 ft 403 kts 232°
2026-05-04 15:42 40.17281 -7.67302 34909 ft 404 kts 232°
2026-05-04 15:43 40.15345 -7.70013 34965 ft 404 kts 232°
2026-05-04 15:43 40.11498 -7.75392 34996 ft 405 kts 232°
2026-05-04 15:44 40.07656 -7.80754 35018 ft 405 kts 232°
2026-05-04 15:44 40.03816 -7.86105 35023 ft 405 kts 232°
2026-05-04 15:45 40.00071 -7.91310 35042 ft 405 kts 232°
2026-05-04 15:45 39.96222 -7.96654 35033 ft 406 kts 232°
2026-05-04 15:46 39.92345 -8.02027 35045 ft 405 kts 232°
2026-05-04 15:46 39.88491 -8.07359 35043 ft 405 kts 232°
2026-05-04 15:47 39.84604 -8.12726 35044 ft 405 kts 232°
2026-05-04 15:47 39.80730 -8.18066 35053 ft 405 kts 232°
2026-05-04 15:48 39.76839 -8.23419 35060 ft 405 kts 232°
2026-05-04 15:48 39.71037 -8.31388 35052 ft 405 kts 232°
2026-05-04 15:49 39.67153 -8.36708 35056 ft 405 kts 232°
2026-05-04 15:49 39.63268 -8.42019 35063 ft 405 kts 232°
2026-05-04 15:50 39.59370 -8.47342 35068 ft 405 kts 232°
2026-05-04 15:50 39.55530 -8.52576 35066 ft 406 kts 232°
2026-05-04 15:51 39.51602 -8.57919 35066 ft 406 kts 232°
2026-05-04 15:51 39.47700 -8.63220 35077 ft 406 kts 232°
2026-05-04 15:52 39.43795 -8.68514 35081 ft 406 kts 232°
2026-05-04 15:52 39.39902 -8.73783 35078 ft 406 kts 232°
2026-05-04 15:53 39.36014 -8.79037 35082 ft 406 kts 232°
2026-05-04 15:53 39.32098 -8.84317 35078 ft 406 kts 232°
2026-05-04 15:54 39.28194 -8.89574 35076 ft 407 kts 232°
2026-05-04 15:54 39.24284 -8.94831 35081 ft 407 kts 232°
2026-05-04 15:55 39.20365 -9.00091 35084 ft 407 kts 232°
2026-05-04 15:55 39.16442 -9.05345 35083 ft 407 kts 232°
2026-05-04 15:56 39.12519 -9.10588 35087 ft 406 kts 232°
2026-05-04 15:56 39.08597 -9.15824 35085 ft 406 kts 232°
2026-05-04 15:57 39.04659 -9.21071 35091 ft 408 kts 232°
2026-05-04 15:57 39.00745 -9.26282 35089 ft 407 kts 232°
2026-05-04 15:58 38.96809 -9.31509 35095 ft 407 kts 232°
2026-05-04 15:58 38.92869 -9.36732 35092 ft 407 kts 232°
2026-05-04 15:59 38.88946 -9.41925 35094 ft 407 kts 232°
2026-05-04 15:59 38.84992 -9.47150 35095 ft 407 kts 232°
2026-05-04 16:00 38.81036 -9.52369 35098 ft 408 kts 232°
2026-05-04 16:00 38.77097 -9.57556 35097 ft 408 kts 232°
2026-05-04 16:01 38.73134 -9.62767 35101 ft 408 kts 232°
2026-05-04 16:01 38.69166 -9.67971 35099 ft 409 kts 232°
2026-05-04 16:02 38.65202 -9.73167 35096 ft 409 kts 232°
2026-05-04 16:03 38.59239 -9.80964 35101 ft 408 kts 232°
2026-05-04 16:03 38.55281 -9.86127 35100 ft 409 kts 232°
2026-05-04 16:04 38.51323 -9.91283 35102 ft 409 kts 232°
2026-05-04 16:04 38.45296 -9.99117 35103 ft 409 kts 232°
2026-05-04 16:05 38.41318 -10.04279 35103 ft 409 kts 232°
2026-05-04 16:06 38.35333 -10.12025 35106 ft 410 kts 232°
2026-05-04 16:07 38.27348 -10.22330 35108 ft 410 kts 232°
2026-05-04 16:08 38.19329 -10.32643 35119 ft 411 kts 232°
2026-05-04 16:09 38.09266 -10.45541 35120 ft 410 kts 232°
2026-05-04 16:10 38.01226 -10.55805 35114 ft 410 kts 231°
2026-05-04 16:11 37.93167 -10.66059 35122 ft 411 kts 231°
2026-05-04 16:12 37.81023 -10.81452 35122 ft 411 kts 231°
2026-05-04 16:13 37.72942 -10.91649 35125 ft 411 kts 231°
2026-05-04 16:14 37.64796 -11.01897 35128 ft 412 kts 231°
2026-05-04 16:16 37.54651 -11.14612 35127 ft 411 kts 230°
2026-05-04 16:17 37.44496 -11.27286 35129 ft 412 kts 230°
2026-05-04 16:18 37.36349 -11.37418 35131 ft 412 kts 230°
2026-05-04 16:19 37.26138 -11.50071 35133 ft 412 kts 230°
2026-05-04 16:20 37.15924 -11.62678 35135 ft 412 kts 230°
2026-05-04 16:22 37.05696 -11.75249 35147 ft 411 kts 229°
2026-05-04 16:23 36.93422 -11.90270 35162 ft 412 kts 230°
2026-05-04 16:25 36.81081 -12.05304 35164 ft 412 kts 230°
2026-05-04 16:26 36.66734 -12.22689 35163 ft 409 kts 230°
2026-05-04 16:28 36.56519 -12.35009 35162 ft 409 kts 230°
2026-05-04 16:29 36.42215 -12.52184 35161 ft 408 kts 230°
2026-05-04 16:31 36.31985 -12.64409 35163 ft 408 kts 230°
2026-05-04 16:32 36.19665 -12.79069 35163 ft 408 kts 229°
2026-05-04 16:33 36.11487 -12.88762 35169 ft 408 kts 229°
2026-05-04 16:34 36.05364 -12.96004 35165 ft 407 kts 229°
2026-05-04 16:35 35.93003 -13.10569 35166 ft 409 kts 229°
2026-05-04 16:36 35.86847 -13.17796 35168 ft 408 kts 229°
2026-05-04 16:37 35.80660 -13.25045 35166 ft 407 kts 229°
2026-05-04 16:38 35.72448 -13.34641 35165 ft 408 kts 229°
2026-05-04 16:39 35.62183 -13.46595 35164 ft 408 kts 228°
2026-05-04 16:40 35.53913 -13.56192 35163 ft 409 kts 228°
2026-05-04 16:41 35.43568 -13.68162 35166 ft 409 kts 228°
2026-05-04 16:43 35.33196 -13.80118 35164 ft 410 kts 227°
2026-05-04 16:43 35.26944 -13.87299 35164 ft 409 kts 227°
2026-05-04 16:45 35.14444 -14.01618 35167 ft 411 kts 227°
2026-05-04 16:46 35.04008 -14.13519 35167 ft 412 kts 227°
2026-05-04 16:47 34.95613 -14.23066 35167 ft 413 kts 227°
2026-05-04 16:48 34.87214 -14.32585 35153 ft 411 kts 227°
2026-05-04 16:49 34.78846 -14.42042 35153 ft 411 kts 227°
2026-05-04 16:50 34.70407 -14.51555 35154 ft 413 kts 227°
2026-05-04 16:51 34.64083 -14.58667 35153 ft 413 kts 226°
2026-05-04 16:52 34.55648 -14.68122 35154 ft 414 kts 225°
2026-05-04 16:53 34.49373 -14.75141 35154 ft 414 kts 225°
2026-05-04 16:54 34.40891 -14.84601 35152 ft 415 kts 226°
2026-05-04 16:55 34.28130 -14.98791 35146 ft 414 kts 225°
2026-05-04 16:56 34.17505 -15.10553 35150 ft 416 kts 225°
2026-05-04 16:57 34.11077 -15.17648 35149 ft 417 kts 225°
2026-05-04 16:58 34.02488 -15.27108 34971 ft 418 kts 225°
2026-05-04 16:59 33.98495 -15.31495 34539 ft 415 kts 225°
2026-05-04 17:00 33.89964 -15.40848 32872 ft 414 kts 225°
2026-05-04 17:01 33.80201 -15.51529 29676 ft 417 kts 225°
2026-05-04 17:01 33.75945 -15.56170 28700 ft 412 kts 225°
2026-05-04 17:02 33.71753 -15.60736 27735 ft 405 kts 225°
2026-05-04 17:02 33.67603 -15.65249 26770 ft 398 kts 224°
2026-05-04 17:03 33.65545 -15.67487 26262 ft 395 kts 224°
2026-05-04 17:03 33.63525 -15.69680 25810 ft 391 kts 224°
2026-05-04 17:03 33.59519 -15.74027 24906 ft 384 kts 224°
2026-05-04 17:04 33.55589 -15.78312 23950 ft 379 kts 226°
2026-05-04 17:04 33.51859 -15.82675 23037 ft 374 kts 226°
2026-05-04 17:05 33.48175 -15.86994 22040 ft 373 kts 226°
2026-05-04 17:05 33.44452 -15.91355 20940 ft 373 kts 226°
2026-05-04 17:06 33.40760 -15.95673 19849 ft 374 kts 226°
2026-05-04 17:06 33.38876 -15.97873 19279 ft 375 kts 226°
2026-05-04 17:07 33.35172 -16.02195 18198 ft 374 kts 226°
2026-05-04 17:07 33.33916 -16.03660 17834 ft 374 kts 226°
2026-05-04 17:07 33.31455 -16.06527 17141 ft 372 kts 226°
2026-05-04 17:07 33.29599 -16.08688 16631 ft 370 kts 225°
2026-05-04 17:08 33.27764 -16.10825 16129 ft 368 kts 225°
2026-05-04 17:08 33.24155 -16.15021 15191 ft 363 kts 225°
2026-05-04 17:08 33.22349 -16.17119 14686 ft 361 kts 225°
2026-05-04 17:09 33.20555 -16.19202 14186 ft 359 kts 225°
2026-05-04 17:09 33.18758 -16.21287 13700 ft 356 kts 225°
2026-05-04 17:09 33.17006 -16.23318 13252 ft 354 kts 225°
2026-05-04 17:10 33.13487 -16.27397 12277 ft 349 kts 225°
2026-05-04 17:10 33.08287 -16.33414 10946 ft 341 kts 225°
2026-05-04 17:11 33.06590 -16.35374 10608 ft 334 kts 225°
2026-05-04 17:11 33.04965 -16.37251 10472 ft 321 kts 225°
2026-05-04 17:11 33.01867 -16.40828 10205 ft 298 kts 225°
2026-05-04 17:12 33.00391 -16.42531 10012 ft 288 kts 225°
2026-05-04 17:12 32.97536 -16.45823 9287 ft 284 kts 225°
2026-05-04 17:13 32.93306 -16.50695 8240 ft 279 kts 225°
2026-05-04 17:14 32.89032 -16.55303 7157 ft 274 kts 223°
2026-05-04 17:14 32.87624 -16.56803 6900 ft 268 kts 223°
2026-05-04 17:14 32.84964 -16.59640 6601 ft 248 kts 223°
2026-05-04 17:15 32.83670 -16.61020 6293 ft 247 kts 223°
2026-05-04 17:15 32.80926 -16.63408 5703 ft 245 kts 205°
2026-05-04 17:16 32.77722 -16.64788 5116 ft 244 kts 199°
2026-05-04 17:16 32.72894 -16.66710 4216 ft 243 kts 198°
2026-05-04 17:17 32.71277 -16.67362 3918 ft 242 kts 198°
2026-05-04 17:17 32.66492 -16.68992 3058 ft 234 kts 173°
2026-05-04 17:18 32.65002 -16.68306 2996 ft 231 kts 140°
2026-05-04 17:18 32.63970 -16.64886 2995 ft 235 kts 77°
2026-05-04 17:19 32.65693 -16.61579 3006 ft 237 kts 47°
2026-05-04 17:19 32.68144 -16.58942 2992 ft 237 kts 41°
2026-05-04 17:20 32.70654 -16.56414 2994 ft 238 kts 41°
2026-05-04 17:20 32.73172 -16.53874 2987 ft 237 kts 41°
2026-05-04 17:20 32.74439 -16.52603 2986 ft 237 kts 41°
2026-05-04 17:21 32.76983 -16.50059 2990 ft 238 kts 41°
2026-05-04 17:21 32.79866 -16.48399 2963 ft 240 kts 352°
2026-05-04 17:22 32.81357 -16.49232 2987 ft 241 kts 315°
2026-05-04 17:22 32.82285 -16.50893 3009 ft 240 kts 295°
2026-05-04 17:23 32.84417 -16.56291 2990 ft 240 kts 295°
2026-05-04 17:23 32.85064 -16.58110 2977 ft 240 kts 282°
2026-05-04 17:23 32.83926 -16.61355 2993 ft 220 kts 218°
2026-05-04 17:24 32.82735 -16.62538 2995 ft 220 kts 219°
2026-05-04 17:24 32.79340 -16.66311 2594 ft 220 kts 223°
2026-05-04 17:25 32.78270 -16.67567 2343 ft 209 kts 223°
2026-05-04 17:25 32.76334 -16.69817 1870 ft 188 kts 221°
2026-05-04 17:26 32.74530 -16.71857 1293 ft 167 kts 222°
2026-05-04 17:26 32.72318 -16.74495 623 ft 138 kts 220°
2026-05-04 17:27 32.70950 -16.76082 311 ft 137 kts 222°
2026-05-04 17:27 32.69823 -16.77406 215 ft 50 kts 225°
2026-05-04 17:28 32.69554 -16.77720 212 ft 24 kts 224°
2026-05-04 17:29 32.69300 -16.77841 179 ft 6 kts 54°
2026-05-04 17:29 32.69329 -16.77802 181 ft 0 kts 45°
2026-05-04 17:30 32.69390 -16.77708 186 ft 9 kts 101°
2026-05-04 17:31 32.69363 -16.77664 178 ft 0 kts 137°